Weather reports worldwide

Advertisment
Beirut, Lebanon (40100): temperature & dewpoint: 10.01.2018 09:00:00 - 16.01.2018 09:00:00 (EET)Beirut, Lebanon (40100): wind speed: 10.01.2018 09:00:00 - 16.01.2018 09:00:00 (EET)Beirut, Lebanon (40100): wind direction: 10.01.2018 09:00:00 - 16.01.2018 09:00:00 (EET)Beirut, Lebanon (40100): reduced air pressure: 10.01.2018 09:00:00 - 16.01.2018 09:00:00 (EET)Beirut, Lebanon (40100): visibility: 10.01.2018 09:00:00 - 16.01.2018 09:00:00 (EET)
Date & Time tt [°C] td [°C] ff [km/h] ff [kn] dd ppp [hPa] vv [km]
16.01.2018 09:00:00 - - - - - - -
16.01.2018 08:00:00 14,9 9,7 8 4 ESE 1026,0 10
16.01.2018 07:00:00 - - - - - - -
16.01.2018 06:00:00 - - - - - - -
16.01.2018 05:00:00 14,1 9,4 8 4 E 1025,4 20
16.01.2018 04:00:00 - - - - - - -
16.01.2018 03:00:00 - - - - - - -
16.01.2018 02:00:00 15,9 9,6 9 5 - 1026,3 20
16.01.2018 01:00:00 - - - - - - -
16.01.2018 00:00:00 - - - - - - -
15.01.2018 23:00:00 15,1 10,5 8 4 SSE 1026,4 10
15.01.2018 22:00:00 - - - - - - -
15.01.2018 21:00:00 - - - - - - -
15.01.2018 20:00:00 14,7 9,3 8 4 SSE 1025,6 20
15.01.2018 19:00:00 - - - - - - -
15.01.2018 18:00:00 - - - - - - -
15.01.2018 17:00:00 15,4 10,2 9 5 S 1024,7 20
15.01.2018 16:00:00 - - - - - - -
15.01.2018 15:00:00 - - - - - - -
15.01.2018 14:00:00 16,2 11,4 15 8 SW 1024,2 10
15.01.2018 13:00:00 - - - - - - -
15.01.2018 12:00:00 - - - - - - -
15.01.2018 11:00:00 17,5 10,9 11 6 SW 1024,5 10
15.01.2018 10:00:00 - - - - - - -
15.01.2018 09:00:00 - - - - - - -
15.01.2018 08:00:00 14,0 9,9 8 4 E 1023,3 10
15.01.2018 07:00:00 - - - - - - -
15.01.2018 06:00:00 - - - - - - -
15.01.2018 05:00:00 13,2 10,0 4 2 - 1021,8 20
15.01.2018 04:00:00 - - - - - - -
15.01.2018 03:00:00 - - - - - - -
15.01.2018 02:00:00 13,8 8,9 15 8 S 1020,2 20
15.01.2018 01:00:00 - - - - - - -
15.01.2018 00:00:00 - - - - - - -
14.01.2018 23:00:00 12,8 8,5 13 7 S 1019,9 40
14.01.2018 22:00:00 - - - - - - -
14.01.2018 21:00:00 - - - - - - -
14.01.2018 20:00:00 13,3 7,4 8 4 - 1017,8 30
14.01.2018 19:00:00 - - - - - - -
14.01.2018 18:00:00 - - - - - - -
14.01.2018 17:00:00 15,2 8,7 9 5 SSE 1016,2 10
14.01.2018 16:00:00 - - - - - - -
14.01.2018 15:00:00 - - - - - - -
14.01.2018 14:00:00 13,1 8,6 8 4 - 1016,5 10
14.01.2018 13:00:00 - - - - - - -
14.01.2018 12:00:00 - - - - - - -
14.01.2018 11:00:00 17,1 6,7 16 9 SSW 1016,3 30
14.01.2018 10:00:00 - - - - - - -
14.01.2018 09:00:00 - - - - - - -
14.01.2018 08:00:00 13,2 9,5 11 6 E 1016,4 20
14.01.2018 07:00:00 - - - - - - -
14.01.2018 06:00:00 - - - - - - -
14.01.2018 05:00:00 15,8 11,8 11 6 W 1014,2 20
14.01.2018 04:00:00 - - - - - - -
14.01.2018 03:00:00 - - - - - - -
14.01.2018 02:00:00 15,4 10,6 9 5 - 1013,2 7
14.01.2018 01:00:00 - - - - - - -
14.01.2018 00:00:00 - - - - - - -
13.01.2018 23:00:00 15,0 9,4 5 3 E 1014,6 10
13.01.2018 22:00:00 - - - - - - -
13.01.2018 21:00:00 - - - - - - -
13.01.2018 20:00:00 15,3 10,3 4 2 SE 1014,6 9
13.01.2018 19:00:00 - - - - - - -
13.01.2018 18:00:00 - - - - - - -
13.01.2018 17:00:00 17,8 11,0 5 3 - 1015,1 10
13.01.2018 16:00:00 - - - - - - -
13.01.2018 15:00:00 - - - - - - -
13.01.2018 14:00:00 19,0 10,7 11 6 - 1015,9 10
13.01.2018 13:00:00 - - - - - - -
13.01.2018 12:00:00 - - - - - - -
13.01.2018 11:00:00 18,8 10,2 9 5 - 1019,6 10
13.01.2018 10:00:00 - - - - - - -
13.01.2018 09:00:00 - - - - - - -
13.01.2018 08:00:00 14,6 6,7 9 5 E 1020,7 10
13.01.2018 07:00:00 - - - - - - -
13.01.2018 06:00:00 - - - - - - -
13.01.2018 05:00:00 14,5 7,6 8 4 ESE 1020,8 10
13.01.2018 04:00:00 - - - - - - -
13.01.2018 03:00:00 - - - - - - -
13.01.2018 02:00:00 14,8 9,2 8 4 E 1021,6 10
13.01.2018 01:00:00 - - - - - - -
13.01.2018 00:00:00 - - - - - - -
12.01.2018 23:00:00 16,0 9,9 5 3 E 1022,5 10
12.01.2018 22:00:00 - - - - - - -
12.01.2018 21:00:00 - - - - - - -
12.01.2018 20:00:00 16,9 11,0 5 3 - 1022,2 10
12.01.2018 19:00:00 - - - - - - -
12.01.2018 18:00:00 - - - - - - -
12.01.2018 17:00:00 17,5 12,5 11 6 SSW 1021,2 10
12.01.2018 16:00:00 - - - - - - -
12.01.2018 15:00:00 - - - - - - -
12.01.2018 14:00:00 19,4 13,0 21 11 SW 1020,9 10
12.01.2018 13:00:00 - - - - - - -
12.01.2018 12:00:00 - - - - - - -
12.01.2018 11:00:00 19,0 12,4 18 10 SSW 1021,6 8
12.01.2018 10:00:00 - - - - - - -
12.01.2018 09:00:00 - - - - - - -
12.01.2018 08:00:00 16,5 6,4 5 3 - 1020,7 9
12.01.2018 07:00:00 - - - - - - -
12.01.2018 06:00:00 - - - - - - -
12.01.2018 05:00:00 15,3 3,5 8 4 E 1018,4 10
12.01.2018 04:00:00 - - - - - - -
12.01.2018 03:00:00 - - - - - - -
12.01.2018 02:00:00 16,2 2,0 5 3 SE 1017,8 10
12.01.2018 01:00:00 - - - - - - -
12.01.2018 00:00:00 - - - - - - -
11.01.2018 23:00:00 15,3 3,5 4 2 - 1017,5 10
11.01.2018 22:00:00 - - - - - - -
11.01.2018 21:00:00 - - - - - - -
11.01.2018 20:00:00 16,7 6,3 9 5 E 1017,8 10
11.01.2018 19:00:00 - - - - - - -
11.01.2018 18:00:00 - - - - - - -
11.01.2018 17:00:00 19,5 8,9 5 3 WNW 1016,4 4,4
11.01.2018 16:00:00 - - - - - - -
11.01.2018 15:00:00 - - - - - - -
11.01.2018 14:00:00 21,1 7,5 5 3 - 1016,2 10
11.01.2018 13:00:00 - - - - - - -
11.01.2018 12:00:00 - - - - - - -
11.01.2018 11:00:00 18,7 9,6 16 9 NE 1019,0 10
11.01.2018 10:00:00 - - - - - - -
11.01.2018 09:00:00 - - - - - - -
11.01.2018 08:00:00 14,3 6,0 5 3 E 1018,0 10
11.01.2018 07:00:00 - - - - - - -
11.01.2018 06:00:00 - - - - - - -
11.01.2018 05:00:00 13,8 6,7 5 3 ESE 1018,3 10
11.01.2018 04:00:00 - - - - - - -
11.01.2018 03:00:00 - - - - - - -
11.01.2018 02:00:00 14,9 8,7 9 5 E 1020,8 10
11.01.2018 01:00:00 - - - - - - -
11.01.2018 00:00:00 - - - - - - -
10.01.2018 23:00:00 15,9 9,6 2 1 - 1021,2 10
10.01.2018 22:00:00 - - - - - - -
10.01.2018 21:00:00 - - - - - - -
10.01.2018 20:00:00 16,3 9,6 5 3 E 1022,6 10
10.01.2018 19:00:00 - - - - - - -
10.01.2018 18:00:00 - - - - - - -
10.01.2018 17:00:00 17,3 9,5 11 6 - 1022,0 10
10.01.2018 16:00:00 - - - - - - -
10.01.2018 15:00:00 - - - - - - -
10.01.2018 14:00:00 18,0 10,0 11 6 - 1023,9 20
10.01.2018 13:00:00 - - - - - - -
10.01.2018 12:00:00 - - - - - - -
10.01.2018 11:00:00 17,9 9,4 8 4 - 1026,2 20
10.01.2018 10:00:00 - - - - - - -
10.01.2018 09:00:00 - - - - - - -

tt = temperature
td = dewpoint
ff = wind speed
dd = wind direction
ppp = reduced air pressure
vv = visibility

Next stations